User: anonymous   Login
Location: Unspecified
(0.0000°N, 0.0000°E)
Time: 09:01:43
(UTC+00:00)
Language:

STARLINK-35526 - Orbit

View from above orbital plane
View from above orbital plane
View from above satellite
View from above satellite

Ground track
Ground track

The orbit is defined by the following mean orbital elements,

1 65931U          26145.33523139 +.00000000 +00000-0 +57571-3 0 00002
2 65931  53.1594 169.6114 0001176  86.4344 273.6791 15.30207870    03
Epoch (UTC): 25 May 2026 08:02:43
Eccentricity: 0.0001176
inclination: 53.1594°
perigee height: 474 km
apogee height: 476 km
right ascension of ascending node: 169.6114°
argument of perigee: 86.4344°
revolutions per day: 15.30207870
mean anomaly at epoch: 273.6791°

The dashed part of the orbit path shows where the satellite is in the earth's shadow,  

DLR